Back to catalog

INTELSAT 4A-F6

AliveCommunicationsGEO
NORAD 10778·PAYLOAD· XX

Launched Mar 31, 1978 from Cape Canaveral Space Force Station

Loading…

TLE

FreshSource: Space-Track

Epoch: Sep 14, 2026, 12:42 UTC

1 10778U 78035A   26257.52963537 -.00000357  00000-0  00000+0 0  9993
2 10778   8.6063 311.1392 0008450 307.9042  55.2621  1.00219807123061

Track INTELSAT 4A-F6 in real time with AllMySat

Download on the App Store